Location: Waco, TX
(31.5480°N, 97.1670°W)
Time: 21:26:55
(UTC-05:00)

ISS - Pass Details

Date: 17 August 2018
Orbit: 402 x 409 km, 51.6° (Epoch: 18 August)

Event Time Altitude Azimuth Distance (km) Brightness Sun altitude
Rises 11:27:42 0° 258° (WSW) 2,304 -0.3 56.0°
Reaches altitude 10° 11:30:13 10° 278° (W) 1,448 -1.2 56.5°
Maximum altitude 11:32:33 18° 324° (NW) 1,056 -1.8 56.9°
Drops below altitude 10° 11:34:54 10° 10° (N) 1,451 -1.0 57.4°
Sets 11:37:26 0° 30° (NNE) 2,312 0.0 57.9°
